SAUDISAT 4

Last updated on Sun Jun 21 2026 00:03:42 GMT+0000 (Coordinated Universal Time)

1 40016U 14033G 26171.36507205 .00000472 00000+0 68801-4 0 9996 2 40016 97.7587 317.3897 0046061 63.9529 296.6414 14.79548154646540
UTC large
Height (km)
Speed (km/s)
/
Latitude / Longitude
Inclination (degrees)
Orbital Period (minutes)
Azimuth
Elevation
Range (km)
Doppler Factor

Next 0 passes for location: London (51.5072 / 0.1276)

No passes found over London.
SAUDISAT 4